Wind_Speed
16 16 15 15 15 15 15 13 12 12 13 12 10 9 8 7 7 7 8 8 8 8 9 10 10 11 11 12 12 12 12 12 11 11 12 14 15 14 11 8 7 7 11 15 17 16 16 16 17 17 16 14 13 11 9 9 8 7 7 6 9 11 12 12 9 7 5 7 11 16 19 20 20 20 18 16 17 16 15 15 16 15 16 17 16 17 18 17
16 16 16 15 15 15 15 14 12 12 12 13 11 11 10 8 7 7 7 8 8 8 8 9 10 10 11 12 12 12 12 13 12 11 12 14 16 15 12 9 6 6 9 12 13 13 12 13 15 16 16 15 14 12 10 10 9 7 7 7 8 10 13 13 11 8 7 8 11 16 18 17 18 18 17 16 17 17 15 16 17 16 17 17 16 18 18 16
16 16 16 15 15 15 15 15 14 12 12 12 12 11 11 10 9 8 7 7 7 8 8 8 9 10 10 11 11 12 12 13 13 13 13 14 16 15 13 11 8 8 9 11 12 14 13 13 14 15 16 16 15 13 11 10 9 7 7 7 8 9 11 14 13 8 6 8 9 13 15 16 15 15 16 14 15 16 14 16 18 17 18 17 13 16 18 16
17 16 16 16 16 15 16 16 15 13 13 13 13 12 11 11 10 10 9 8 7 7 8 8 8 9 10 10 10 11 12 13 13 14 13 14 16 16 15 13 11 11 12 14 16 18 17 17 17 17 17 17 16 14 13 12 10 9 9 9 9 8 9 12 13 10 4 6 8 10 12 15 14 14 14 12 12 14 14 15 16 16 17 15 9 13 17 14
17 16 16 16 16 16 16 15 15 14 14 13 13 12 12 11 11 10 10 9 8 7 7 8 9 10 10 10 9 10 10 11 13 14 14 15 16 16 16 15 14 13 13 16 19 21 20 19 20 20 19 19 17 15 13 13 12 11 10 8 7 8 8 9 11 10 4 5 8 9 10 11 12 13 12 11 9 9 13 14 16 14 15 13 6 11 17 14
16 16 16 16 16 16 16 15 15 14 14 14 13 13 12 12 11 11 11 10 10 8 7 8 9 10 10 10 9 9 9 9 12 14 14 15 17 17 17 17 16 15 13 15 19 21 20 20 21 22 21 20 18 15 13 14 13 11 9 6 6 7 8 9 9 10 6 5 9 8 9 9 9 11 11 12 10 8 10 13 17 15 13 13 6 9 16 13
16 15 15 15 15 15 15 15 15 14 14 13 13 13 12 12 12 12 12 11 10 10 8 8 9 10 11 11 9 8 10 10 12 14 15 16 17 18 18 18 17 15 14 15 17 19 20 21 21 21 21 20 18 15 14 15 13 11 7 5 4 5 6 8 7 8 6 4 9 8 8 9 9 10 11 12 11 10 10 12 17 16 13 13 9 11 15 12
16 15 15 15 15 15 15 14 14 14 14 13 13 13 12 12 13 13 13 12 10 10 10 9 9 10 11 11 10 9 10 11 12 14 15 16 18 18 19 19 18 16 14 13 14 17 19 20 19 20 19 18 17 15 16 15 12 9 5 4 3 2 4 6 7 7 5 2 6 7 7 9 10 9 10 12 11 10 11 13 16 17 13 12 11 13 16 14
17 16 15 15 15 15 15 14 14 14 14 13 13 13 12 12 13 13 13 12 11 10 10 10 10 9 10 11 11 9 10 12 13 14 16 16 18 19 19 19 18 17 14 13 14 16 18 18 18 18 17 17 16 16 18 15 11 9 6 4 4 1 2 3 5 4 3 2 3 6 7 11 12 10 10 12 12 11 12 13 14 15 13 11 13 16 16 14
18 17 16 16 15 15 15 15 15 14 14 13 13 12 12 13 13 13 13 13 12 10 10 10 10 9 9 11 11 11 12 14 15 15 15 16 17 19 20 19 19 18 15 13 13 16 16 16 17 17 17 18 17 18 19 15 12 10 6 4 4 2 2 2 3 1 2 2 3 5 7 11 13 11 11 14 15 12 12 14 14 14 13 12 13 18 18 15
18 18 18 17 16 16 16 16 16 15 15 14 12 12 12 13 13 13 13 13 12 11 10 10 10 9 9 11 12 11 13 14 15 16 16 16 16 18 20 20 19 19 17 13 12 14 16 16 17 18 19 19 19 19 18 15 12 10 7 3 4 2 2 3 2 1 3 4 3 4 8 12 13 12 12 14 16 14 13 14 14 13 14 14 15 19 20 18
19 18 18 18 17 17 17 16 16 16 16 14 12 12 12 13 13 13 13 13 12 11 10 10 10 9 9 11 12 12 13 14 16 17 17 17 16 16 19 21 21 20 18 14 12 14 16 17 18 21 21 20 19 17 15 16 12 8 7 3 3 2 2 3 0 4 5 4 3 4 8 16 13 11 12 15 16 15 13 14 14 13 14 17 18 20 21 19
19 19 18 18 18 18 17 17 17 17 16 14 13 13 12 12 12 12 12 12 12 11 10 10 10 9 10 11 12 12 13 14 16 18 17 17 16 15 17 20 22 22 20 16 14 15 17 17 20 22 22 20 19 16 13 15 12 8 6 3 2 2 3 1 3 7 7 5 4 1 5 13 13 10 12 15 16 16 14 14 14 14 16 20 20 22 22 20
18 18 18 18 17 18 18 17 17 17 16 15 13 13 12 12 12 12 12 11 11 10 9 11 11 11 11 11 11 12 13 14 16 17 17 16 15 14 16 18 21 22 22 20 18 18 17 18 20 22 21 19 20 18 12 13 12 8 6 5 3 2 3 0 3 6 7 6 7 4 4 8 12 13 14 15 16 15 14 14 14 15 18 21 21 22 22 21
18 18 18 18 17 17 17 18 17 17 16 14 13 13 12 12 12 12 11 11 10 9 9 11 12 11 11 11 12 13 14 14 15 16 17 16 15 15 16 18 19 21 22 21 21 21 20 19 21 21 20 20 20 18 12 10 11 8 5 5 4 3 3 1 3 5 7 6 6 6 4 3 7 12 14 16 16 15 15 14 14 16 19 21 22 23 22 21
19 19 19 18 17 17 17 17 17 17 16 14 13 13 12 12 12 11 11 10 9 8 10 12 12 11 11 12 13 13 14 15 15 16 17 18 17 17 17 18 20 21 22 22 21 23 23 21 23 22 20 20 19 18 13 8 7 7 6 3 4 5 2 2 2 4 7 7 7 6 4 3 3 6 10 14 15 14 15 15 15 16 19 21 23 23 23 23
20 20 20 19 18 17 16 16 16 17 16 14 12 12 12 12 12 11 10 9 8 9 11 13 13 12 11 12 14 15 15 15 16 16 16 17 18 18 18 19 20 21 23 23 22 24 25 25 25 23 20 19 18 17 13 8 6 7 7 4 2 5 3 2 0 3 5 7 7 6 5 4 2 1 5 11 13 12 14 15 15 17 19 20 23 24 24 23
20 20 20 20 18 17 16 16 16 16 15 13 12 11 11 11 11 11 10 8 8 9 12 14 15 14 12 13 16 16 14 14 16 17 16 16 17 18 20 20 20 22 24 24 24 26 26 26 26 23 21 20 19 18 12 8 8 9 9 7 3 4 5 4 3 2 2 4 5 6 6 5 5 3 3 8 13 12 11 13 15 17 20 20 22 24 24 23
20 20 21 20 19 18 17 16 16 16 15 13 11 10 10 10 10 10 9 8 8 10 12 14 18 16 13 17 19 15 14 14 15 16 16 15 16 18 21 21 20 21 24 26 26 28 29 28 26 24 24 22 20 18 12 8 9 11 11 9 6 4 5 5 3 3 2 1 3 4 2 1 5 7 5 5 11 13 12 13 14 17 19 20 21 24 24 23
21 21 22 21 20 19 18 16 16 16 14 12 11 10 9 9 8 8 9 8 9 13 14 16 20 17 15 19 18 15 15 15 14 15 15 15 15 17 20 21 20 21 23 26 27 28 30 29 29 28 26 24 19 16 14 11 10 11 11 10 8 6 5 4 1 2 2 1 1 2 3 2 6 9 9 8 10 13 14 14 14 16 19 21 22 23 25 23
23 22 22 22 20 19 18 16 15 15 13 11 10 9 8 7 7 7 8 8 10 14 15 17 21 17 17 20 17 15 16 14 14 14 14 16 16 16 18 19 20 22 23 24 26 28 29 29 29 27 23 20 17 15 15 15 12 10 10 10 9 8 6 2 1 1 2 2 2 3 3 2 5 9 11 11 10 10 12 13 13 14 16 20 22 23 24 24
23 22 22 21 20 19 17 15 15 14 12 10 9 8 7 7 7 8 8 8 10 15 16 18 20 18 18 20 17 16 15 12 12 13 14 17 17 15 17 17 18 23 24 24 26 28 29 28 27 22 19 18 17 16 16 16 15 12 11 10 9 9 6 2 3 1 2 2 3 4 4 2 4 9 11 12 11 10 10 10 12 12 14 18 22 23 24 26
23 22 21 20 19 18 15 14 14 13 10 8 7 6 7 7 7 7 7 7 9 14 17 19 20 18 19 19 17 16 12 11 11 12 12 16 18 15 15 16 17 22 24 26 29 29 26 26 26 20 17 18 17 16 16 15 15 15 14 12 11 10 7 3 4 4 3 3 4 6 7 5 4 8 10 11 12 12 12 11 12 13 13 15 19 22 23 26
22 22 21 19 19 17 13 13 13 11 8 6 5 6 6 6 6 6 6 7 9 13 18 20 20 19 19 18 17 14 11 10 11 9 10 14 17 14 13 14 16 21 23 24 27 28 23 20 22 20 16 16 16 16 17 15 14 16 17 16 15 13 9 5 4 5 5 5 4 7 8 5 2 4 7 10 12 13 14 14 13 14 14 14 17 22 24 25
21 21 20 19 18 15 12 11 11 9 6 3 4 4 3 4 4 5 6 7 9 14 18 20 20 19 18 17 16 13 11 11 11 10 10 13 15 13 14 13 14 20 23 22 22 24 22 16 15 17 17 16 16 16 17 15 13 15 17 18 18 16 12 8 5 5 5 4 3 5 4 3 5 4 3 7 12 13 13 14 13 13 14 15 16 21 25 25
21 21 20 18 17 13 10 10 9 7 4 3 4 4 3 3 3 5 7 7 9 16 18 19 20 18 16 15 15 14 14 13 13 12 11 14 14 13 14 12 14 18 21 23 21 20 23 19 13 12 13 15 16 16 17 16 13 14 16 16 17 18 15 11 7 4 3 2 3 4 2 3 6 6 2 5 10 12 12 12 13 13 15 15 14 17 22 25
22 22 20 17 14 11 9 8 7 5 3 3 4 5 5 4 5 8 8 6 8 15 18 17 18 18 15 15 16 15 14 14 15 13 11 13 13 12 12 10 12 16 19 22 20 18 22 21 15 12 10 12 15 17 17 16 15 15 14 12 11 16 17 13 9 6 4 3 6 6 2 3 6 5 3 2 7 10 13 13 13 13 13 14 14 14 17 22
22 21 19 15 12 9 7 6 4 2 2 2 3 5 5 6 8 11 7 3 6 13 16 15 17 17 14 16 17 13 13 15 15 13 12 12 12 11 11 8 9 13 16 19 16 15 19 18 15 13 12 12 14 15 15 15 16 15 11 8 7 10 13 11 10 7 5 4 5 5 2 2 3 6 6 3 3 6 11 14 15 15 14 13 13 14 15 18
18 17 15 13 10 7 5 4 1 1 2 2 2 5 6 7 11 10 3 2 7 11 13 14 16 17 17 19 16 12 16 17 13 14 13 11 11 11 11 10 9 10 11 14 14 12 15 15 13 12 12 12 13 13 14 14 14 13 9 7 8 9 9 10 10 7 3 3 4 5 3 2 1 7 8 3 3 6 9 12 15 17 17 15 14 14 14 16
14 13 12 11 9 6 5 3 2 2 2 3 4 6 7 10 10 5 1 4 7 10 13 13 15 18 19 19 15 14 19 16 13 15 12 8 10 11 11 11 10 11 12 14 13 12 13 12 11 11 11 13 13 12 12 11 11 11 8 8 9 9 10 10 9 6 2 3 6 6 5 5 1 8 10 7 6 10 10 10 11 15 17 17 16 16 15 15
12 11 10 9 8 6 5 4 4 4 5 6 8 10 10 10 5 1 3 7 8 9 12 14 17 19 18 18 17 17 16 13 14 15 9 7 11 11 11 13 13 11 11 13 11 9 11 10 9 10 10 12 13 11 10 10 11 11 10 10 9 8 9 7 5 5 4 3 5 6 6 6 2 7 9 7 6 11 13 11 10 11 15 17 18 18 18 17
11 10 8 8 8 6 6 5 5 6 8 10 12 12 10 8 5 6 5 7 7 8 12 16 18 18 17 17 18 16 13 13 13 12 9 9 11 12 12 15 17 13 10 12 10 8 10 11 9 9 8 10 11 11 10 10 11 11 12 14 11 7 7 6 4 4 4 4 5 7 7 5 4 5 6 5 4 9 11 11 10 9 12 15 18 18 20 20
10 9 8 8 7 6 6 6 7 9 11 11 11 9 8 7 6 8 7 5 6 9 13 16 16 16 16 17 18 15 13 13 12 9 9 9 10 12 12 14 19 15 10 12 11 9 10 9 8 8 6 7 9 12 12 10 10 12 14 16 12 6 6 6 4 2 4 5 6 7 6 6 7 4 3 4 4 7 8 9 9 9 11 13 14 15 17 20
8 8 8 8 7 6 6 6 8 10 10 9 8 9 11 9 6 9 11 10 10 12 14 14 15 14 15 17 19 16 14 14 12 10 10 10 10 11 11 14 17 14 11 12 11 9 8 6 6 6 5 5 8 13 14 11 11 11 13 15 13 9 6 5 5 4 5 5 7 8 5 6 9 6 4 5 5 5 6 8 7 8 10 11 12 13 14 17
7 8 9 8 7 7 7 8 9 9 9 9 10 15 15 10 7 10 12 13 14 14 16 16 15 16 17 19 18 16 14 14 13 11 11 10 12 14 12 12 14 13 12 12 9 8 8 7 7 7 5 5 6 10 13 12 10 10 12 13 12 10 7 5 7 8 8 7 7 9 4 4 13 11 4 3 2 1 3 6 7 8 9 11 12 13 15 16
8 9 9 8 8 9 9 10 9 10 11 9 11 18 18 11 10 11 10 12 15 16 19 19 16 17 19 18 16 14 12 13 13 12 11 11 13 14 13 12 11 11 12 11 9 8 7 9 10 8 6 5 5 7 11 12 9 9 11 12 11 12 9 7 8 9 10 7 6 9 4 4 12 12 6 5 4 5 5 4 6 7 8 10 11 11 13 16
9 9 8 8 9 10 11 11 9 11 8 5 9 18 17 12 12 12 11 11 13 16 18 17 15 15 16 15 15 13 11 12 13 12 12 12 11 12 13 13 12 10 10 10 9 9 9 10 10 9 6 5 5 5 8 12 12 9 10 11 11 11 10 7 6 7 8 7 4 7 7 7 5 5 7 9 10 9 7 4 2 4 6 8 8 8 10 13
8 9 8 8 9 10 10 9 8 8 4 2 14 20 16 13 12 10 10 10 9 11 12 13 12 12 15 16 15 13 11 11 11 11 12 11 9 10 11 12 11 10 10 10 9 9 11 10 8 7 7 5 4 4 6 8 11 10 10 13 11 7 8 8 6 5 7 6 4 6 7 10 7 6 8 7 8 8 7 5 3 4 5 6 6 6 7 9
6 6 7 9 9 9 9 9 9 7 4 7 17 18 15 16 13 8 8 8 7 6 7 10 12 12 15 16 15 14 11 9 10 12 11 9 8 8 8 10 10 9 9 10 10 9 9 6 4 4 4 4 3 4 4 4 7 9 9 12 12 7 7 11 8 4 5 5 4 4 4 6 7 7 9 11 10 8 7 6 5 5 5 5 6 7 7 8
5 3 5 8 9 9 10 9 9 6 3 11 17 14 14 15 14 11 9 8 6 6 6 9 11 12 13 13 14 13 10 9 10 10 9 9 10 8 7 8 8 8 7 7 7 7 6 5 4 2 2 3 5 5 5 5 4 6 7 10 12 9 9 10 9 6 4 3 4 4 4 5 6 4 5 8 11 10 8 7 6 7 7 7 8 8 8 8
4 2 4 6 6 7 9 8 6 4 7 12 14 12 12 13 13 12 11 9 7 7 9 8 8 11 12 11 11 10 10 12 11 9 10 12 11 9 7 6 5 5 5 5 5 5 5 5 5 5 5 7 8 7 6 6 4 4 6 9 11 11 12 9 5 6 5 3 3 4 5 5 5 6 6 6 8 9 10 9 9 10 10 9 10 10 10 9
2 1 3 5 4 6 8 6 5 6 8 12 12 10 10 10 10 11 11 9 7 8 9 8 8 10 10 10 10 9 10 12 10 10 12 12 11 10 8 6 5 5 5 6 7 6 6 6 7 8 9 10 10 8 7 7 6 5 5 8 10 11 13 8 4 7 7 4 5 6 7 6 6 8 7 5 5 6 9 10 10 12 13 11 10 11 11 11
2 0 3 4 3 4 6 7 8 6 7 10 9 7 6 4 4 6 7 7 6 7 7 8 9 9 10 10 9 9 10 10 9 10 12 12 11 10 9 7 6 5 5 5 6 7 6 6 9 11 10 8 8 7 7 7 6 6 6 7 8 9 11 7 8 13 8 5 7 5 5 6 4 7 7 6 4 4 7 8 10 12 13 13 12 11 11 12
3 2 2 2 2 3 4 7 8 8 8 8 6 3 3 1 1 3 3 4 6 6 5 7 9 8 9 10 9 8 8 8 9 10 11 11 11 10 9 7 5 4 2 2 3 3 3 3 7 9 6 4 4 4 4 5 5 5 6 6 5 6 7 6 10 13 8 6 7 4 5 6 3 2 5 6 4 2 5 7 9 11 13 15 14 12 11 10
3 2 2 2 3 4 4 7 9 8 8 7 4 3 3 1 2 2 2 3 4 5 4 7 8 8 9 9 8 7 6 7 9 10 10 10 9 9 7 5 3 2 1 1 2 2 1 1 4 5 3 3 2 3 5 7 7 5 5 6 5 6 7 6 7 8 6 6 7 5 7 5 3 3 5 4 4 3 2 4 6 9 13 16 15 13 13 11
2 3 3 4 4 5 5 7 7 6 7 6 4 5 6 4 3 4 3 3 4 5 4 6 7 6 6 6 6 6 6 6 7 8 10 9 8 7 6 4 3 3 4 4 5 5 3 4 5 6 7 6 5 6 9 11 10 7 5 5 5 6 7 7 5 4 5 7 7 6 6 3 3 6 6 4 4 4 1 1 4 6 10 14 16 15 14 14
1 2 3 4 3 4 6 6 4 4 4 3 4 6 7 7 6 5 4 4 4 4 4 5 5 4 4 4 4 4 4 5 5 7 9 8 6 6 4 3 4 5 5 5 5 4 3 5 5 6 8 8 9 10 12 12 12 9 7 5 5 4 5 6 5 4 5 6 5 3 3 2 4 7 7 4 2 2 1 1 3 6 9 12 14 14 13 15
0 1 1 3 2 2 2 2 2 2 2 2 3 4 5 7 7 5 4 4 3 3 3 4 4 3 3 4 4 3 4 5 6 7 8 7 6 5 4 4 4 5 5 4 3 3 3 5 6 7 7 8 9 11 11 12 11 9 7 7 6 5 4 5 5 5 5 5 4 4 4 4 6 7 7 6 3 1 1 2 3 5 7 9 10 11 12 13
1 1 0 2 2 1 0 1 1 3 3 3 3 3 3 5 5 4 3 3 3 2 2 2 3 3 4 5 4 5 6 6 6 8 8 6 6 5 4 3 3 3 3 2 2 3 4 6 7 7 7 8 8 9 9 10 8 7 7 8 7 5 5 5 5 5 6 6 5 4 4 6 8 9 9 8 6 4 3 4 4 5 6 7 9 10 10 11
3 2 2 2 2 3 2 2 2 4 4 3 2 2 2 2 3 3 2 3 3 3 3 2 3 4 4 4 4 6 7 6 6 7 7 6 5 5 4 3 2 2 2 2 3 4 4 6 8 7 7 6 6 6 6 6 6 6 6 7 6 5 5 5 5 6 6 6 6 6 5 5 7 10 10 9 8 7 5 5 6 7 7 7 9 10 10 9
3 2 2 3 3 4 5 5 4 5 5 4 3 2 1 2 2 2 2 3 2 3 4 4 4 5 5 5 5 6 7 7 7 8 8 7 7 6 5 5 4 3 3 3 4 5 5 6 8 8 6 5 5 4 3 3 3 4 5 6 6 5 5 5 6 6 6 6 6 6 5 6 8 10 10 9 9 7 6 6 7 9 9 8 8 9 10 10
3 3 3 3 3 4 5 6 6 5 5 5 3 2 1 1 2 1 2 3 3 4 5 5 5 6 6 6 5 6 7 8 8 9 9 9 8 7 7 6 5 4 4 5 5 6 6 7 9 8 6 6 6 5 3 2 1 3 6 6 6 7 7 6 5 5 5 6 6 6 7 10 12 11 10 10 9 9 8 6 7 9 10 10 9 9 10 11
Wind_Direction
316 315 315 314 312 311 310 311 311 306 302 301 300 301 304 306 299 281 264 252 243 240 237 233 230 229 229 228 227 222 223 226 224 216 208 201 201 205 205 213 228 218 210 214 215 208 203 197 196 191 177 182 185 173 161 138 125 118 109 89 68 58 50 43 43 55 90 136 149 154 162 167 163 159 158 160 165 166 170 171 169 172 174 170 173 179 175 169
318 316 315 315 313 311 308 307 307 303 296 294 294 295 297 301 301 296 284 267 249 237 234 235 233 230 228 227 225 220 217 220 221 216 209 204 205 205 203 210 213 208 210 210 210 206 202 197 195 189 180 186 186 174 161 136 127 122 107 94 79 66 56 51 50 63 93 119 143 153 160 165 161 158 158 161 165 166 172 170 164 167 171 167 168 176 176 170
321 319 318 316 313 311 308 306 306 302 294 289 287 288 291 293 293 291 289 282 267 247 233 229 232 234 231 228 224 220 215 213 215 214 210 205 206 204 199 203 198 194 200 195 195 195 191 187 190 191 187 188 187 177 161 142 137 127 113 101 84 73 64 60 55 55 94 115 140 158 163 165 162 161 163 165 166 168 173 170 165 165 170 168 163 173 177 170
324 322 320 318 315 312 309 307 306 304 296 289 284 283 285 287 288 285 282 281 277 265 246 229 225 232 235 230 224 220 214 211 211 210 209 204 205 202 198 198 193 194 198 192 189 190 188 182 184 190 191 191 188 180 164 150 145 130 115 99 81 70 62 62 55 46 85 126 137 160 172 169 163 165 169 169 169 170 167 169 170 165 171 172 156 171 179 172
326 324 322 320 318 314 311 309 307 304 299 293 286 282 281 282 282 280 278 275 273 271 263 244 226 226 233 231 226 219 211 214 212 206 204 202 203 201 199 197 195 197 200 199 194 191 190 184 185 187 190 193 189 183 168 150 139 126 110 88 69 59 46 47 52 46 56 159 152 161 180 177 168 168 171 167 166 170 164 163 169 166 171 176 154 171 181 175
327 325 323 322 319 316 313 310 308 304 299 296 291 285 280 280 279 277 275 273 270 268 266 258 238 226 229 229 227 219 209 212 208 201 200 199 200 199 198 199 199 200 199 202 201 196 192 188 189 188 188 189 185 183 173 153 142 130 108 76 58 53 38 30 42 44 40 174 164 159 180 186 181 171 166 168 165 164 164 161 167 166 165 173 166 172 184 178
329 327 324 322 320 317 314 312 309 305 301 297 293 288 282 279 277 274 272 270 269 268 263 260 249 233 227 225 223 220 212 207 200 197 196 194 196 196 198 200 201 203 203 205 203 199 194 191 193 192 189 185 179 181 180 165 148 132 112 95 75 53 35 22 27 39 40 152 159 155 176 185 184 174 167 172 170 162 163 165 171 171 162 168 171 175 186 180
332 329 327 323 320 317 315 313 309 305 301 297 294 291 286 279 274 272 270 267 267 268 265 256 252 241 230 224 218 218 216 208 198 194 192 191 193 194 197 201 202 204 206 206 203 199 195 192 194 195 190 182 175 180 184 174 153 140 134 139 132 57 36 23 15 31 43 111 160 163 170 176 178 180 180 177 173 165 164 169 176 177 169 168 172 178 188 181
332 330 328 325 321 317 314 312 309 304 300 297 294 292 288 280 273 269 267 267 266 267 266 255 250 244 232 224 218 217 216 208 198 192 189 188 190 192 197 201 202 205 207 205 199 196 195 190 192 195 189 180 178 185 187 179 169 168 168 170 179 190 42 27 2 15 51 72 175 182 172 171 173 178 189 186 182 172 167 172 179 181 176 174 175 179 186 182
331 330 329 327 323 318 314 312 308 304 300 296 294 291 287 281 273 268 266 266 265 267 267 255 247 242 229 220 218 216 211 205 198 192 188 186 188 190 194 199 201 203 206 207 197 190 190 188 189 190 183 180 184 189 188 183 181 184 190 199 190 173 55 38 355 4 133 137 175 196 189 177 173 179 188 188 189 182 173 174 178 182 179 179 181 180 182 181
330 330 329 328 325 320 316 312 309 305 301 298 295 290 284 279 274 269 265 264 264 267 266 253 241 237 221 213 216 215 208 203 198 193 189 186 187 189 193 197 198 200 203 205 198 186 185 188 187 183 180 181 187 191 191 189 187 190 204 211 171 158 27 7 341 182 166 171 193 235 218 195 182 185 190 191 193 188 178 176 180 184 180 180 185 182 180 179
330 329 328 327 325 321 318 314 310 307 303 301 298 290 283 279 275 270 264 262 261 264 263 247 233 225 210 206 211 211 207 203 197 192 190 188 187 189 194 196 194 197 199 197 193 185 185 188 185 181 181 180 182 189 195 194 193 200 218 224 169 189 335 351 196 167 159 165 214 273 215 200 193 186 190 198 200 194 185 182 185 187 180 180 185 184 179 176
331 329 328 325 323 320 318 315 311 308 305 305 300 291 285 279 275 269 263 259 256 259 255 237 223 210 200 204 207 205 204 201 196 192 190 189 188 189 194 197 195 193 194 190 184 184 187 189 186 183 183 181 181 186 196 199 200 207 219 222 196 259 319 342 172 169 155 159 193 238 171 190 195 187 190 200 203 197 191 186 187 185 180 182 185 184 178 174
334 331 329 326 323 320 317 315 312 309 307 308 303 294 288 281 275 269 262 256 252 252 242 226 213 198 196 204 199 196 199 196 195 194 192 193 192 192 192 195 197 195 193 187 179 181 186 189 188 185 184 185 187 188 191 197 204 208 211 216 218 278 313 82 166 170 154 161 185 174 143 179 190 185 186 196 199 196 193 191 188 182 180 184 185 184 179 173
337 334 331 329 326 322 319 316 312 309 307 308 305 297 291 282 274 269 262 255 247 240 226 214 205 196 195 196 188 189 194 191 191 191 194 198 199 201 195 192 196 197 195 189 181 178 180 185 185 180 182 187 189 191 190 189 203 205 197 225 233 245 296 80 144 165 158 174 197 192 174 160 178 185 188 193 195 192 189 192 192 184 181 185 187 186 181 175
337 335 333 332 330 326 321 317 313 309 307 308 304 298 292 283 275 269 262 254 242 226 212 204 201 195 189 188 184 182 188 191 189 186 191 198 201 204 200 193 192 194 196 191 185 181 177 179 179 177 182 186 189 194 191 179 194 197 188 223 241 223 266 34 154 171 163 183 206 206 188 137 139 183 196 197 195 194 190 188 191 188 184 186 189 188 183 180
335 333 332 332 332 329 323 318 314 310 309 308 302 296 292 284 275 267 260 253 237 216 201 196 194 187 183 183 176 174 182 188 185 178 182 193 198 200 200 197 191 192 194 189 186 184 178 175 175 182 188 187 191 195 191 183 177 174 183 204 223 203 194 59 169 190 177 192 206 216 215 205 216 200 206 205 199 200 196 190 190 190 188 187 190 191 187 185
333 330 328 329 330 328 325 321 316 312 312 311 302 296 291 285 277 267 261 250 231 209 196 193 185 178 178 174 169 173 178 177 176 171 172 182 190 194 197 196 192 191 191 187 186 185 179 176 177 187 194 190 194 196 189 187 177 164 176 190 174 164 156 116 82 78 159 209 217 226 226 217 239 262 230 209 206 205 198 192 192 193 191 188 189 192 191 189
329 326 325 326 328 327 326 324 318 314 315 315 305 295 288 282 276 267 261 245 222 202 194 191 183 177 175 170 168 173 172 166 170 171 171 176 182 190 194 192 192 192 190 186 186 185 181 179 182 191 196 193 195 197 187 172 168 168 174 184 172 145 137 127 100 62 82 185 227 241 253 233 255 261 261 230 217 215 207 200 197 196 196 192 189 193 194 192
326 323 321 322 324 324 324 323 317 313 317 318 308 295 285 279 272 266 258 240 217 200 193 187 181 179 176 171 168 166 165 163 168 173 178 178 179 189 191 188 187 188 191 190 186 187 186 186 191 195 196 195 195 197 194 184 172 169 172 183 188 169 133 121 130 359 36 358 311 297 287 257 246 250 253 254 237 225 220 215 207 202 201 197 191 192 195 193
322 320 319 319 319 318 320 320 314 311 317 319 309 294 283 273 264 260 246 230 213 198 194 185 178 178 176 174 169 162 159 158 162 171 179 181 180 187 187 183 183 182 187 192 189 188 190 194 200 200 195 194 198 200 201 203 198 188 181 187 196 188 165 159 246 11 31 318 335 342 312 267 231 235 239 243 245 240 235 232 225 215 208 204 196 192 193 192
324 322 321 320 316 312 314 315 310 309 314 317 308 290 275 265 258 253 237 222 207 195 192 181 173 175 177 175 173 166 161 161 165 167 175 183 182 185 187 181 181 183 183 188 190 189 192 200 203 199 194 193 198 202 206 214 216 216 209 202 210 204 188 210 239 240 8 326 335 343 341 349 223 223 227 231 235 243 249 249 243 233 220 211 202 194 190 191
327 326 324 321 316 308 307 308 304 305 311 313 304 282 267 261 253 247 229 212 201 192 186 175 168 172 174 174 175 171 169 172 174 170 172 183 183 185 188 182 181 186 185 187 192 189 191 202 201 193 194 195 197 203 210 219 225 228 227 224 224 214 201 222 244 257 306 311 332 342 333 326 254 227 227 226 227 230 237 245 246 240 231 217 209 202 193 192
330 329 327 323 315 306 304 303 299 302 308 306 291 268 259 255 242 229 207 191 189 185 180 171 166 169 171 172 171 169 172 173 173 172 171 179 184 182 183 184 185 188 188 190 195 195 194 202 201 198 201 198 200 208 213 221 231 235 235 234 229 218 215 233 256 275 293 295 329 351 338 337 339 253 238 223 223 224 224 231 238 239 234 221 212 207 201 195
334 331 329 324 315 310 307 301 297 301 302 287 265 240 237 244 219 193 172 163 171 175 173 169 169 171 171 169 167 165 167 165 160 159 162 172 178 180 183 188 189 190 191 188 191 197 199 201 200 205 213 210 209 214 216 223 235 241 241 238 231 223 222 234 255 292 305 303 350 7 342 355 29 3 280 221 222 224 221 227 235 240 240 231 215 207 204 200
335 332 331 328 322 318 313 302 299 303 292 253 239 214 193 206 190 161 146 134 148 162 164 167 171 173 171 169 168 164 160 158 155 153 160 171 177 182 183 187 192 193 193 190 189 195 201 203 199 201 215 219 221 222 219 222 232 242 242 236 232 227 224 229 240 269 292 296 344 355 324 301 340 356 347 229 221 221 220 224 233 240 243 240 229 214 207 203
338 337 337 335 331 325 317 311 309 302 268 229 228 204 184 191 172 147 140 120 133 157 162 166 170 171 170 169 167 165 163 159 157 159 163 165 170 178 180 187 193 191 195 194 192 200 204 206 208 210 217 221 223 224 221 222 228 235 234 227 226 226 225 227 232 245 267 288 307 313 294 289 316 349 4 258 223 219 219 219 227 238 243 243 239 229 216 208
345 345 343 341 337 329 325 329 326 291 231 221 223 198 188 184 160 150 151 114 131 157 163 164 167 167 165 163 162 165 169 162 159 163 163 158 159 167 171 178 179 182 195 193 190 206 209 208 214 220 222 220 219 221 219 220 225 231 229 209 193 206 213 216 224 240 264 284 284 276 258 251 301 331 330 295 243 247 243 237 233 235 243 245 242 237 225 216
353 351 349 350 351 350 353 360 14 149 186 190 182 183 181 164 151 151 158 94 125 152 157 157 160 159 158 159 158 163 167 164 162 161 158 161 166 166 167 170 164 162 177 182 183 198 201 200 206 209 214 212 208 213 212 213 220 224 221 203 188 185 185 195 211 224 239 258 251 243 234 207 15 355 346 352 332 286 268 257 245 239 241 244 244 241 231 223
359 357 360 3 10 22 31 45 70 89 133 145 148 157 152 146 147 154 147 100 116 142 148 150 153 151 155 159 155 159 165 165 165 159 150 151 164 169 171 170 161 149 152 162 168 170 171 176 185 191 198 196 196 205 203 202 208 209 202 190 186 183 182 193 208 211 196 233 241 244 245 225 137 38 32 29 343 297 283 280 263 245 239 237 238 238 235 230
1 5 11 16 27 44 58 76 90 97 117 127 131 135 132 132 132 55 111 108 107 133 144 147 151 151 155 162 157 153 160 165 166 165 160 154 162 169 171 167 161 154 156 161 161 162 168 169 169 178 184 186 191 195 191 192 194 194 192 181 169 164 173 183 185 188 195 214 230 232 227 217 179 51 40 30 333 299 292 293 283 257 241 238 238 236 237 235
5 13 23 33 42 57 72 88 107 114 122 126 126 128 125 115 73 49 94 109 100 126 138 143 150 152 158 164 157 150 154 158 160 170 175 168 169 170 166 168 169 167 166 167 161 155 164 164 160 168 171 173 182 184 182 188 191 194 195 185 171 152 166 179 163 173 196 200 209 211 203 188 142 74 43 27 329 303 294 287 282 263 241 237 239 238 239 239
15 22 30 43 50 64 78 93 114 122 128 127 125 128 120 104 64 50 73 92 103 126 135 142 149 154 160 158 148 147 151 145 145 160 164 165 176 175 169 170 174 176 176 170 162 147 149 154 158 165 159 158 177 184 182 182 186 193 192 186 180 164 175 185 163 155 192 200 206 198 183 163 147 120 58 44 4 329 308 288 273 260 241 232 233 235 238 239
31 31 33 40 49 69 85 100 114 124 127 117 118 123 104 86 65 64 78 93 111 126 134 141 147 152 159 151 141 146 145 129 127 135 140 150 159 156 157 166 175 182 179 170 166 157 152 145 152 165 158 149 172 183 186 186 187 192 192 190 188 184 189 187 173 173 159 156 181 185 182 166 157 140 72 58 32 1 327 302 275 259 247 236 232 228 230 234
39 33 34 34 45 65 77 93 107 117 112 107 121 116 92 67 58 69 79 99 113 125 134 142 149 151 150 145 143 151 145 127 128 133 133 137 130 121 124 143 162 177 176 170 165 156 145 126 122 133 138 137 152 173 186 189 187 194 194 192 193 192 191 173 172 178 161 140 159 172 172 169 169 164 130 79 28 337 294 300 283 266 254 247 245 235 229 227
43 32 34 38 48 59 67 82 98 103 104 124 129 100 78 62 64 64 76 106 117 127 138 144 148 145 140 140 144 150 149 142 144 139 128 119 109 105 107 112 128 152 167 169 158 146 139 128 120 111 110 126 130 157 185 189 187 191 191 193 195 190 181 162 159 167 170 177 174 162 134 136 175 187 206 218 237 228 224 261 276 271 264 259 258 246 231 221
49 37 38 46 53 57 59 64 79 89 94 156 124 88 72 68 66 61 73 99 121 135 142 143 139 136 135 137 142 147 148 148 150 141 125 114 100 99 103 102 105 120 142 151 145 144 145 136 128 110 99 124 128 131 171 187 194 193 189 191 189 184 183 173 152 154 176 193 163 131 93 79 140 220 254 240 241 241 233 235 254 262 263 266 267 255 240 228
59 53 55 60 60 58 54 47 54 59 26 117 102 84 73 71 63 60 69 78 109 137 150 146 134 137 143 142 144 151 153 152 156 150 133 119 104 99 103 103 101 106 122 124 116 132 140 134 135 122 95 103 136 139 144 171 191 198 198 193 182 173 182 177 160 160 185 190 138 113 88 64 51 9 346 312 278 260 248 243 233 239 253 262 267 264 256 244
61 64 66 66 59 51 49 45 40 24 358 104 99 83 74 71 63 67 75 68 87 120 153 152 141 143 150 152 153 155 158 160 162 154 137 122 116 109 103 103 101 101 112 112 103 119 134 129 137 139 109 104 131 153 140 134 171 187 195 193 187 183 183 181 181 186 192 182 148 141 116 61 41 26 13 360 344 316 283 268 257 255 272 273 264 262 264 260
56 66 68 61 51 41 36 28 17 3 68 104 97 87 81 73 62 67 77 71 80 104 128 144 150 151 151 155 157 157 153 152 160 158 141 131 129 121 110 106 104 104 108 107 97 106 123 118 109 113 138 144 123 118 127 114 136 174 183 184 187 186 178 179 186 194 199 183 166 166 139 79 47 44 32 18 10 349 319 304 297 290 294 293 278 268 265 264
51 54 72 66 53 39 22 1 357 37 96 97 91 89 86 76 66 66 70 74 87 106 113 124 149 155 153 150 152 159 152 145 154 155 137 136 137 130 127 121 108 101 99 101 96 94 104 104 99 94 102 126 125 113 118 115 113 156 176 179 182 176 171 176 188 194 193 172 166 162 133 102 60 51 45 31 23 358 333 322 315 302 297 297 290 283 278 271
29 25 85 79 62 35 23 28 53 71 94 97 91 86 81 78 73 65 66 75 93 108 113 121 136 142 146 144 143 157 154 141 144 146 139 144 149 143 144 141 125 108 98 100 93 84 90 89 91 100 104 118 129 126 121 120 118 128 156 175 178 174 176 184 186 177 173 146 143 137 124 119 73 56 52 36 26 359 341 330 318 307 301 298 293 290 290 283
11 41 86 77 67 39 39 63 76 80 96 93 79 68 69 74 72 70 70 73 90 108 116 125 129 131 135 135 139 152 149 134 134 144 147 151 153 147 149 151 139 128 114 102 85 79 85 83 90 103 112 123 134 138 136 131 125 122 137 162 170 172 179 188 176 169 158 130 146 139 129 147 101 55 62 54 34 350 338 332 323 318 311 305 296 288 291 289
15 25 30 23 55 55 60 75 75 78 85 74 53 45 62 75 92 95 77 63 86 106 122 127 127 133 139 138 139 150 150 136 135 144 150 155 158 152 152 153 142 134 121 89 67 65 72 91 107 114 122 134 143 156 158 152 145 138 134 138 147 161 169 168 166 166 153 135 158 148 115 152 175 72 86 77 60 358 325 323 329 334 327 318 307 291 287 290
3 10 3 10 45 51 73 82 70 68 73 62 53 70 76 92 123 103 67 63 96 110 133 140 134 138 145 143 142 147 152 149 148 154 159 164 168 164 159 162 160 178 255 317 324 334 336 188 166 165 185 191 184 188 184 179 173 162 142 129 132 150 162 164 159 159 147 131 135 109 104 135 193 169 137 113 104 96 336 318 328 340 338 331 325 309 291 284
351 360 7 23 46 47 67 83 70 59 61 52 57 77 75 78 104 108 93 92 108 113 136 152 145 142 144 142 143 144 144 148 154 166 173 176 181 180 179 188 214 258 283 295 302 305 277 230 222 217 217 220 217 202 193 190 183 174 164 155 150 149 158 167 159 146 141 123 108 108 122 136 197 185 177 167 136 130 135 308 308 317 328 331 333 330 309 293
350 345 10 27 51 60 72 87 80 58 53 38 57 76 72 72 88 107 108 101 106 117 140 152 154 161 156 151 158 150 143 148 154 167 178 186 195 203 210 226 254 275 286 290 289 286 250 218 210 207 206 206 203 196 193 194 192 188 187 186 180 167 157 161 164 159 149 129 119 157 188 214 219 209 206 200 173 163 167 330 307 306 318 324 330 338 327 308
63 228 17 28 35 57 80 110 103 76 63 48 74 85 73 68 77 93 109 113 118 128 140 152 167 179 178 188 200 184 162 159 162 172 184 195 207 222 238 249 264 270 269 270 260 235 208 193 188 188 186 183 188 192 194 199 202 204 208 208 205 197 174 168 175 173 159 145 154 194 232 250 243 241 240 237 245 268 309 339 336 326 325 320 320 328 330 320
125 155 109 33 27 29 51 201 80 58 54 64 91 101 80 66 60 66 109 130 123 111 116 142 164 167 176 191 198 193 187 181 181 189 196 203 211 224 234 232 246 252 239 230 220 197 178 178 183 181 174 174 184 193 200 207 212 217 222 222 219 212 196 188 186 177 173 178 190 216 251 259 258 260 254 253 266 280 298 324 335 328 317 306 306 313 324 330
121 124 108 80 68 70 86 107 69 46 48 69 92 85 63 45 32 44 111 141 125 104 105 124 145 151 158 156 153 172 184 183 188 196 200 202 206 211 216 211 213 225 223 220 216 200 178 179 186 180 167 171 185 192 201 209 209 214 222 223 219 216 215 214 205 191 191 199 209 225 239 241 252 263 260 256 267 279 295 311 311 305 300 295 295 296 303 320
125 137 116 86 87 97 97 96 83 69 67 73 70 47 11 350 9 44 112 138 113 75 68 86 113 126 125 119 129 159 173 171 174 182 188 192 192 197 204 203 198 210 232 232 218 211 203 191 186 180 164 166 183 193 208 221 214 219 228 225 215 210 219 230 226 215 212 213 212 214 216 220 237 257 265 263 263 274 288 297 293 292 292 288 285 284 285 294
127 131 110 80 85 99 95 89 87 86 87 79 65 53 19 4 17 55 119 130 104 60 55 75 101 113 115 115 128 155 169 174 178 179 181 184 185 192 203 207 205 209 219 218 206 206 209 196 186 181 168 171 189 191 192 212 224 229 228 221 211 211 219 227 233 233 228 218 204 200 211 226 237 250 265 269 262 259 263 269 273 278 283 285 285 287 286 283
Height
3137 3137 3136 3136 3135 3134 3134 3133 3133 3133 3132 3132 3132 3132 3132 3132 3132 3132 3131 3131 3131 3131 3132 3132 3132 3133 3133 3134 3135 3136 3137 3138 3140 3141 3142 3143 3143 3144 3144 3145 3145 3147 3148 3148 3150 3152 3154 3156 3157 3158 3160 3161 3163 3164 3165 3165 3165 3166 3166 3166 3166 3165 3165 3164 3164 3164 3164 3164 3165 3166 3167 3169 3171 3172 3174 3176 3177 3178 3179 3180 3181 3182 3184 3185 3186 3188 3189 3190
3136 3135 3135 3134 3134 3133 3132 3132 3132 3131 3131 3131 3131 3131 3131 3131 3131 3131 3130 3130 3130 3130 3130 3131 3131 3132 3132 3133 3133 3135 3136 3137 3138 3139 3140 3141 3142 3143 3144 3145 3145 3146 3147 3148 3150 3152 3154 3156 3157 3158 3160 3161 3163 3164 3165 3165 3165 3166 3166 3166 3166 3166 3166 3165 3165 3165 3165 3165 3166 3167 3169 3171 3172 3173 3175 3176 3177 3178 3179 3180 3181 3183 3184 3185 3186 3188 3190 3191
3135 3134 3133 3133 3132 3131 3131 3130 3130 3130 3129 3129 3129 3130 3130 3130 3130 3130 3130 3129 3129 3129 3129 3129 3130 3130 3131 3131 3132 3133 3134 3136 3137 3138 3139 3140 3141 3142 3143 3144 3145 3146 3147 3148 3150 3152 3153 3155 3157 3158 3159 3161 3163 3164 3164 3165 3165 3166 3166 3167 3167 3167 3166 3166 3165 3166 3166 3167 3168 3169 3170 3171 3173 3175 3175 3177 3178 3179 3180 3181 3182 3183 3185 3186 3187 3188 3190 3192
3133 3133 3132 3131 3131 3130 3129 3129 3128 3128 3128 3128 3128 3128 3128 3128 3129 3129 3128 3128 3128 3129 3129 3128 3129 3129 3130 3130 3131 3132 3133 3134 3135 3136 3138 3139 3140 3141 3142 3143 3144 3145 3146 3147 3148 3150 3151 3153 3155 3157 3159 3160 3162 3164 3164 3164 3165 3166 3167 3167 3167 3167 3167 3166 3166 3166 3167 3167 3169 3170 3171 3172 3173 3175 3176 3177 3179 3179 3181 3183 3184 3185 3186 3187 3188 3189 3191 3192
3132 3131 3130 3130 3129 3128 3128 3127 3127 3126 3126 3126 3126 3127 3127 3127 3127 3127 3127 3127 3127 3128 3128 3128 3128 3128 3128 3129 3130 3130 3132 3133 3134 3135 3136 3137 3139 3140 3141 3143 3144 3144 3145 3146 3147 3148 3151 3153 3154 3156 3158 3160 3162 3164 3164 3164 3165 3166 3167 3167 3167 3167 3167 3167 3167 3167 3167 3168 3169 3170 3171 3172 3173 3175 3176 3178 3179 3181 3182 3183 3185 3186 3187 3188 3189 3190 3192 3193
3130 3130 3129 3128 3128 3127 3126 3126 3125 3125 3124 3124 3125 3125 3125 3126 3126 3125 3125 3125 3126 3126 3127 3127 3127 3127 3127 3128 3129 3129 3131 3132 3132 3134 3135 3136 3137 3139 3140 3142 3143 3143 3144 3145 3146 3148 3150 3152 3153 3155 3157 3159 3161 3163 3164 3164 3165 3166 3167 3167 3167 3167 3167 3167 3167 3167 3167 3168 3169 3170 3171 3173 3174 3175 3176 3178 3179 3181 3182 3184 3185 3186 3187 3189 3190 3191 3192 3194
3129 3128 3128 3127 3126 3125 3125 3124 3124 3123 3123 3123 3123 3123 3124 3124 3124 3124 3124 3124 3124 3125 3125 3126 3126 3126 3126 3127 3127 3128 3129 3130 3131 3132 3133 3135 3136 3138 3139 3141 3142 3143 3144 3145 3146 3148 3150 3152 3153 3155 3156 3158 3161 3163 3164 3164 3165 3166 3166 3166 3166 3167 3167 3167 3167 3167 3167 3167 3168 3170 3171 3172 3174 3175 3176 3177 3179 3181 3182 3184 3185 3186 3187 3189 3190 3192 3193 3195
3128 3127 3126 3126 3125 3124 3123 3123 3122 3122 3121 3121 3121 3122 3122 3122 3122 3122 3122 3122 3123 3123 3124 3124 3124 3125 3125 3126 3126 3127 3128 3129 3130 3131 3132 3133 3135 3137 3138 3140 3141 3143 3144 3145 3146 3148 3150 3152 3154 3155 3157 3159 3161 3162 3163 3164 3165 3165 3166 3166 3166 3166 3166 3167 3167 3167 3168 3168 3169 3170 3171 3172 3174 3175 3176 3177 3179 3181 3182 3184 3185 3186 3187 3189 3190 3192 3194 3195
3127 3126 3125 3124 3123 3122 3122 3121 3121 3120 3120 3120 3120 3120 3120 3120 3120 3120 3120 3121 3121 3121 3122 3122 3123 3123 3124 3125 3125 3126 3127 3127 3129 3130 3131 3132 3133 3135 3137 3139 3140 3142 3143 3144 3146 3147 3149 3152 3153 3155 3157 3159 3160 3161 3162 3163 3164 3165 3165 3166 3166 3166 3166 3167 3167 3167 3168 3169 3169 3170 3171 3172 3173 3175 3176 3178 3179 3181 3182 3184 3185 3186 3188 3189 3190 3192 3194 3196
3125 3125 3124 3123 3122 3121 3120 3120 3119 3118 3118 3118 3118 3118 3118 3118 3118 3118 3118 3119 3119 3120 3120 3120 3121 3122 3123 3124 3124 3125 3125 3126 3128 3129 3130 3131 3132 3134 3136 3138 3139 3141 3143 3144 3145 3147 3149 3152 3153 3155 3157 3159 3159 3160 3161 3162 3163 3164 3165 3165 3166 3166 3166 3167 3167 3167 3168 3169 3170 3171 3172 3172 3173 3175 3176 3177 3179 3181 3182 3183 3185 3186 3188 3189 3191 3192 3194 3196
3124 3123 3123 3122 3121 3120 3119 3118 3117 3117 3116 3117 3117 3116 3116 3116 3116 3116 3117 3117 3118 3118 3118 3119 3120 3120 3121 3122 3123 3124 3124 3124 3126 3128 3129 3130 3131 3133 3135 3137 3139 3141 3142 3144 3146 3147 3149 3151 3152 3154 3156 3157 3159 3160 3161 3162 3163 3164 3164 3165 3166 3166 3166 3166 3167 3167 3168 3168 3170 3171 3172 3172 3173 3174 3176 3177 3178 3180 3182 3183 3185 3186 3188 3189 3191 3192 3193 3195
3123 3122 3121 3120 3119 3118 3117 3116 3115 3115 3115 3115 3115 3114 3114 3114 3114 3114 3115 3115 3116 3116 3117 3117 3118 3119 3120 3121 3122 3122 3123 3123 3125 3127 3128 3129 3131 3132 3133 3135 3137 3139 3142 3144 3146 3147 3148 3150 3151 3153 3155 3156 3158 3160 3161 3161 3162 3163 3164 3165 3166 3166 3166 3166 3166 3167 3167 3168 3169 3170 3170 3171 3173 3174 3176 3177 3178 3179 3181 3183 3184 3186 3187 3189 3190 3192 3193 3195
3122 3121 3120 3119 3118 3117 3116 3115 3114 3113 3113 3113 3113 3112 3112 3112 3112 3112 3113 3113 3114 3114 3115 3116 3117 3118 3119 3120 3120 3121 3122 3123 3124 3126 3127 3129 3130 3132 3133 3134 3136 3138 3140 3142 3144 3146 3148 3149 3151 3153 3154 3156 3158 3159 3160 3161 3162 3163 3164 3165 3165 3166 3166 3166 3166 3166 3167 3168 3169 3170 3170 3171 3173 3174 3175 3176 3177 3179 3181 3182 3184 3186 3187 3188 3190 3192 3193 3195
3121 3120 3118 3117 3116 3115 3114 3113 3112 3111 3111 3111 3111 3110 3110 3110 3110 3110 3111 3111 3112 3112 3113 3114 3115 3116 3117 3119 3119 3121 3122 3122 3123 3125 3127 3128 3130 3131 3132 3134 3135 3137 3139 3141 3142 3144 3147 3149 3151 3153 3154 3156 3157 3158 3159 3160 3162 3163 3164 3165 3165 3166 3165 3165 3166 3166 3167 3168 3169 3170 3171 3171 3172 3173 3174 3175 3176 3178 3180 3182 3184 3185 3187 3188 3190 3192 3193 3195
3120 3118 3117 3116 3115 3114 3112 3111 3110 3110 3109 3110 3109 3108 3108 3108 3108 3108 3109 3110 3110 3110 3111 3113 3114 3115 3116 3118 3119 3119 3121 3122 3123 3124 3126 3127 3129 3130 3131 3133 3134 3136 3138 3140 3141 3143 3145 3148 3150 3152 3154 3155 3156 3158 3159 3161 3162 3163 3164 3165 3165 3165 3165 3165 3166 3166 3167 3168 3168 3170 3171 3171 3172 3173 3173 3174 3176 3177 3179 3182 3183 3185 3187 3188 3190 3192 3193 3195
3119 3117 3116 3115 3114 3112 3111 3110 3109 3108 3108 3108 3107 3106 3106 3106 3106 3107 3107 3108 3108 3109 3110 3111 3113 3114 3116 3117 3117 3119 3120 3121 3122 3123 3124 3126 3127 3129 3130 3132 3133 3135 3137 3139 3141 3142 3144 3146 3149 3151 3152 3154 3156 3157 3159 3161 3162 3162 3164 3164 3164 3164 3165 3165 3165 3166 3167 3167 3168 3169 3170 3172 3172 3173 3174 3174 3176 3177 3179 3181 3183 3185 3187 3188 3190 3192 3193 3194
3117 3116 3114 3113 3112 3111 3110 3108 3107 3107 3106 3106 3105 3105 3105 3104 3104 3105 3105 3106 3107 3108 3109 3110 3112 3114 3115 3115 3116 3118 3119 3120 3121 3122 3123 3124 3126 3127 3129 3131 3132 3134 3136 3138 3140 3141 3143 3145 3148 3150 3151 3153 3155 3156 3159 3161 3161 3162 3163 3163 3163 3164 3165 3165 3165 3166 3167 3167 3168 3169 3170 3172 3172 3173 3174 3175 3176 3177 3178 3180 3182 3184 3186 3188 3190 3191 3192 3194
3116 3114 3113 3112 3111 3110 3109 3107 3106 3105 3104 3104 3104 3103 3103 3103 3103 3103 3104 3105 3106 3107 3108 3109 3111 3112 3114 3115 3116 3117 3118 3119 3120 3121 3122 3123 3125 3126 3128 3130 3131 3133 3134 3137 3139 3141 3143 3145 3147 3149 3150 3152 3154 3155 3158 3159 3160 3162 3163 3163 3163 3164 3164 3165 3166 3166 3166 3167 3168 3168 3169 3171 3172 3173 3174 3174 3175 3177 3178 3180 3182 3183 3185 3187 3189 3191 3192 3194
3115 3113 3112 3111 3109 3108 3107 3105 3104 3103 3103 3102 3102 3102 3102 3101 3101 3102 3102 3103 3105 3106 3107 3108 3109 3111 3112 3113 3115 3116 3118 3119 3120 3121 3122 3123 3124 3125 3126 3128 3130 3132 3134 3136 3138 3140 3142 3144 3146 3147 3149 3151 3152 3155 3157 3158 3159 3161 3162 3162 3163 3164 3164 3165 3166 3166 3166 3167 3168 3168 3169 3170 3171 3172 3173 3174 3175 3176 3178 3180 3181 3183 3184 3186 3188 3190 3192 3193
3114 3112 3110 3108 3107 3106 3105 3104 3102 3101 3101 3101 3100 3100 3100 3100 3100 3100 3101 3102 3103 3104 3105 3106 3108 3110 3111 3113 3114 3116 3117 3119 3120 3121 3122 3123 3124 3125 3126 3128 3129 3131 3134 3135 3137 3139 3141 3143 3144 3145 3147 3150 3152 3154 3156 3157 3158 3160 3161 3162 3163 3164 3165 3165 3165 3166 3166 3167 3167 3168 3168 3170 3171 3171 3172 3173 3174 3175 3177 3178 3180 3182 3183 3185 3188 3189 3191 3193
3112 3110 3108 3106 3105 3104 3103 3102 3100 3100 3100 3099 3099 3099 3098 3098 3098 3098 3099 3100 3101 3103 3104 3105 3107 3109 3110 3112 3114 3116 3117 3119 3120 3121 3122 3123 3124 3125 3126 3127 3128 3130 3133 3135 3137 3139 3141 3142 3142 3145 3148 3150 3152 3154 3155 3157 3158 3159 3161 3162 3162 3163 3164 3165 3165 3166 3166 3166 3167 3167 3168 3169 3170 3170 3171 3172 3173 3175 3176 3177 3179 3181 3183 3185 3186 3189 3191 3193
3109 3107 3106 3104 3102 3101 3100 3099 3098 3098 3098 3098 3097 3097 3097 3097 3097 3097 3098 3098 3100 3101 3103 3105 3107 3108 3110 3112 3114 3115 3117 3118 3120 3121 3121 3122 3124 3125 3126 3127 3128 3130 3131 3134 3137 3138 3140 3141 3142 3146 3148 3150 3152 3153 3155 3156 3157 3159 3160 3161 3162 3163 3164 3165 3165 3165 3166 3166 3167 3167 3167 3168 3168 3169 3170 3171 3172 3174 3175 3177 3178 3180 3182 3184 3186 3188 3190 3192
3107 3105 3103 3102 3100 3099 3098 3097 3096 3096 3096 3096 3096 3096 3096 3096 3096 3096 3097 3097 3098 3100 3102 3105 3107 3108 3109 3111 3113 3115 3117 3118 3119 3120 3121 3122 3124 3125 3126 3127 3128 3130 3131 3133 3135 3137 3139 3140 3143 3146 3148 3149 3151 3153 3154 3155 3157 3158 3159 3160 3162 3162 3163 3165 3165 3165 3165 3166 3166 3166 3166 3167 3167 3167 3168 3169 3171 3172 3174 3175 3177 3179 3181 3183 3185 3187 3189 3191
3105 3103 3101 3099 3097 3096 3096 3095 3095 3095 3095 3095 3094 3094 3094 3094 3095 3095 3096 3096 3097 3099 3102 3104 3106 3107 3109 3111 3113 3115 3117 3118 3119 3120 3121 3122 3124 3125 3126 3127 3129 3130 3131 3133 3135 3137 3139 3140 3143 3146 3147 3149 3150 3152 3153 3155 3156 3157 3157 3159 3160 3161 3163 3164 3165 3165 3165 3165 3165 3165 3165 3165 3166 3166 3167 3168 3169 3170 3172 3173 3175 3177 3179 3181 3184 3186 3188 3190
3103 3101 3099 3097 3095 3094 3094 3093 3093 3093 3093 3093 3093 3093 3093 3093 3093 3094 3095 3096 3097 3099 3101 3104 3105 3107 3109 3111 3113 3115 3116 3117 3119 3120 3121 3122 3124 3125 3126 3127 3129 3130 3131 3133 3135 3138 3140 3141 3143 3145 3146 3148 3150 3151 3152 3154 3155 3156 3156 3157 3159 3161 3162 3163 3164 3165 3165 3165 3165 3165 3165 3165 3165 3166 3166 3167 3167 3168 3170 3172 3173 3175 3177 3179 3181 3184 3186 3188
3102 3099 3097 3095 3094 3093 3092 3092 3091 3092 3092 3092 3092 3093 3093 3093 3093 3093 3094 3095 3097 3099 3101 3103 3105 3107 3109 3111 3113 3115 3116 3117 3118 3119 3121 3122 3123 3125 3126 3127 3128 3130 3131 3133 3135 3138 3139 3141 3143 3144 3146 3147 3149 3150 3151 3152 3154 3155 3155 3156 3158 3160 3161 3163 3164 3165 3165 3165 3165 3165 3166 3165 3165 3165 3166 3166 3167 3168 3169 3171 3172 3174 3176 3177 3179 3182 3184 3186
3100 3097 3095 3094 3092 3091 3091 3091 3091 3091 3091 3091 3092 3092 3092 3093 3093 3093 3094 3096 3097 3099 3100 3102 3104 3106 3109 3111 3113 3114 3116 3117 3118 3120 3121 3122 3123 3125 3126 3127 3128 3129 3131 3133 3135 3137 3138 3140 3142 3144 3145 3146 3147 3148 3149 3151 3153 3153 3154 3156 3157 3159 3161 3162 3163 3164 3165 3165 3165 3164 3165 3166 3165 3165 3166 3166 3166 3167 3169 3170 3172 3173 3175 3176 3178 3180 3183 3185
3098 3096 3094 3092 3091 3091 3090 3090 3090 3090 3090 3091 3091 3091 3092 3092 3093 3094 3095 3096 3097 3099 3100 3102 3104 3106 3108 3110 3112 3114 3116 3117 3118 3120 3121 3122 3123 3124 3126 3127 3128 3129 3130 3133 3136 3137 3138 3140 3142 3143 3144 3145 3146 3147 3148 3150 3151 3152 3153 3155 3156 3158 3159 3161 3163 3164 3164 3165 3165 3164 3165 3166 3166 3165 3165 3165 3166 3168 3169 3170 3171 3173 3174 3176 3178 3179 3181 3184
3098 3096 3094 3092 3091 3090 3090 3090 3090 3090 3090 3090 3090 3091 3091 3092 3093 3094 3095 3096 3098 3099 3100 3102 3104 3106 3108 3110 3112 3113 3115 3117 3118 3119 3120 3122 3123 3124 3126 3127 3128 3129 3130 3133 3136 3136 3137 3140 3141 3141 3142 3143 3144 3146 3147 3148 3150 3151 3153 3154 3155 3157 3158 3160 3162 3163 3163 3164 3164 3163 3164 3165 3165 3165 3165 3164 3166 3167 3167 3168 3170 3171 3173 3175 3177 3178 3180 3182
3098 3096 3094 3093 3091 3090 3090 3090 3090 3090 3090 3090 3090 3091 3091 3092 3093 3094 3095 3097 3099 3099 3101 3102 3104 3106 3108 3109 3111 3113 3115 3116 3118 3119 3120 3121 3123 3124 3125 3127 3128 3130 3131 3133 3135 3136 3137 3139 3139 3140 3141 3142 3143 3144 3146 3147 3149 3150 3152 3153 3154 3156 3157 3159 3160 3162 3163 3163 3162 3162 3163 3164 3164 3165 3165 3165 3165 3165 3165 3167 3168 3170 3171 3173 3175 3177 3179 3181
3099 3097 3095 3093 3092 3091 3090 3090 3090 3090 3090 3090 3090 3091 3092 3093 3094 3094 3096 3098 3099 3100 3101 3102 3104 3106 3108 3109 3110 3113 3115 3117 3118 3119 3120 3121 3122 3124 3125 3127 3128 3130 3132 3133 3134 3136 3137 3138 3139 3139 3140 3141 3142 3144 3145 3146 3147 3149 3150 3152 3153 3155 3157 3158 3160 3161 3162 3161 3160 3161 3162 3163 3164 3166 3166 3166 3165 3164 3164 3165 3167 3168 3170 3172 3173 3175 3177 3179
3099 3097 3096 3094 3093 3092 3091 3090 3090 3090 3090 3091 3091 3092 3093 3094 3094 3095 3097 3098 3099 3101 3102 3103 3104 3106 3107 3109 3111 3113 3115 3117 3118 3119 3120 3121 3122 3123 3124 3126 3127 3129 3131 3132 3134 3135 3136 3137 3138 3139 3139 3140 3141 3142 3144 3145 3146 3147 3148 3150 3152 3153 3155 3157 3158 3159 3160 3159 3159 3160 3161 3162 3164 3165 3165 3165 3165 3164 3164 3164 3165 3166 3168 3170 3171 3173 3175 3176
3100 3098 3097 3095 3094 3093 3092 3091 3091 3091 3091 3092 3092 3093 3093 3094 3096 3098 3098 3098 3100 3101 3102 3103 3105 3106 3108 3109 3112 3114 3116 3117 3118 3119 3120 3121 3122 3123 3124 3125 3127 3128 3129 3131 3133 3134 3136 3137 3138 3138 3138 3139 3140 3141 3142 3143 3144 3145 3146 3148 3149 3150 3152 3155 3156 3157 3158 3158 3159 3160 3160 3162 3163 3164 3164 3164 3164 3163 3163 3163 3164 3165 3166 3167 3169 3171 3173 3174
3100 3099 3098 3097 3096 3094 3094 3093 3092 3093 3093 3093 3094 3094 3094 3095 3098 3099 3099 3099 3100 3101 3103 3104 3105 3107 3109 3111 3112 3114 3116 3117 3119 3120 3121 3121 3122 3123 3124 3125 3127 3128 3129 3130 3132 3134 3135 3136 3137 3137 3138 3138 3139 3140 3141 3142 3143 3143 3144 3146 3147 3147 3148 3150 3152 3154 3155 3156 3158 3160 3160 3160 3162 3163 3163 3163 3163 3163 3162 3162 3162 3163 3164 3166 3167 3169 3171 3172
3102 3101 3100 3099 3098 3097 3096 3095 3095 3095 3095 3095 3095 3095 3095 3098 3100 3100 3100 3101 3101 3102 3103 3105 3106 3108 3110 3111 3113 3115 3116 3118 3120 3121 3121 3122 3123 3124 3125 3125 3127 3128 3129 3130 3132 3133 3134 3136 3137 3137 3137 3138 3138 3139 3140 3141 3142 3143 3144 3145 3146 3146 3147 3148 3149 3151 3152 3154 3157 3159 3159 3159 3160 3161 3161 3162 3163 3163 3162 3161 3161 3162 3163 3164 3165 3166 3168 3169
3103 3102 3101 3101 3100 3099 3098 3097 3097 3097 3096 3097 3097 3096 3098 3100 3101 3101 3101 3102 3102 3103 3104 3106 3107 3109 3110 3112 3114 3115 3116 3118 3119 3121 3122 3123 3124 3125 3125 3126 3127 3128 3128 3129 3131 3133 3134 3136 3137 3137 3137 3137 3138 3138 3139 3140 3141 3142 3143 3144 3144 3145 3147 3147 3149 3151 3152 3152 3154 3157 3158 3159 3160 3160 3160 3160 3161 3162 3161 3161 3161 3161 3161 3162 3162 3164 3165 3166
3104 3103 3103 3102 3101 3101 3100 3099 3099 3098 3099 3099 3098 3099 3101 3102 3102 3102 3103 3103 3104 3105 3105 3106 3108 3109 3111 3112 3114 3116 3117 3118 3120 3121 3122 3123 3125 3126 3126 3127 3128 3128 3129 3129 3131 3132 3133 3135 3137 3137 3137 3138 3138 3138 3139 3139 3140 3141 3142 3143 3144 3145 3146 3147 3148 3150 3151 3150 3152 3156 3157 3158 3160 3159 3159 3159 3159 3160 3160 3160 3160 3160 3160 3160 3161 3162 3163 3164
3106 3105 3104 3104 3103 3102 3102 3101 3101 3100 3100 3100 3100 3101 3103 3103 3103 3103 3104 3104 3105 3106 3106 3107 3108 3110 3111 3112 3115 3116 3117 3119 3120 3121 3122 3124 3126 3127 3127 3128 3128 3129 3129 3130 3131 3132 3133 3135 3136 3137 3137 3138 3138 3138 3139 3139 3140 3140 3141 3142 3143 3144 3145 3146 3146 3148 3148 3148 3151 3155 3157 3158 3160 3159 3158 3158 3157 3158 3158 3159 3159 3159 3159 3159 3159 3160 3161 3162
3107 3106 3106 3105 3104 3104 3103 3102 3102 3102 3101 3101 3101 3103 3104 3104 3105 3105 3104 3105 3105 3106 3107 3108 3108 3110 3112 3113 3115 3116 3117 3119 3120 3121 3122 3124 3126 3127 3128 3128 3129 3130 3130 3131 3131 3132 3133 3134 3136 3137 3137 3137 3138 3138 3139 3139 3139 3140 3141 3141 3142 3143 3143 3144 3145 3145 3146 3146 3149 3154 3156 3159 3160 3160 3159 3158 3157 3156 3156 3157 3157 3157 3158 3158 3158 3159 3159 3160
3107 3107 3106 3106 3105 3105 3104 3104 3103 3103 3102 3102 3103 3104 3105 3105 3105 3106 3105 3106 3106 3106 3107 3108 3109 3111 3112 3114 3115 3116 3118 3119 3120 3121 3122 3124 3126 3128 3128 3129 3129 3130 3131 3131 3132 3133 3133 3134 3135 3136 3136 3137 3138 3138 3138 3139 3139 3140 3140 3140 3141 3142 3143 3144 3145 3145 3145 3145 3146 3149 3155 3159 3160 3159 3158 3158 3157 3156 3155 3155 3156 3156 3156 3156 3156 3157 3157 3159
3107 3107 3107 3106 3106 3106 3105 3105 3105 3104 3103 3104 3104 3105 3106 3106 3106 3107 3107 3107 3107 3107 3108 3109 3110 3111 3113 3114 3115 3117 3118 3119 3121 3122 3123 3124 3126 3127 3128 3129 3129 3130 3131 3131 3132 3133 3133 3134 3135 3136 3136 3137 3138 3138 3138 3138 3139 3139 3139 3140 3141 3141 3142 3143 3144 3145 3145 3145 3145 3146 3152 3159 3159 3157 3157 3157 3156 3156 3155 3155 3155 3154 3155 3155 3155 3155 3156 3157
3107 3107 3107 3107 3106 3106 3106 3105 3105 3105 3105 3105 3106 3106 3107 3107 3107 3108 3108 3108 3108 3108 3109 3110 3111 3112 3113 3114 3116 3117 3118 3119 3121 3122 3123 3125 3126 3127 3128 3129 3129 3130 3131 3132 3132 3133 3133 3134 3135 3136 3136 3137 3138 3138 3138 3138 3138 3139 3139 3139 3140 3140 3141 3141 3142 3143 3144 3145 3146 3146 3151 3157 3157 3156 3156 3156 3156 3156 3155 3155 3154 3153 3153 3153 3154 3154 3154 3155
3107 3107 3107 3107 3106 3106 3106 3106 3106 3106 3106 3106 3106 3107 3107 3108 3108 3108 3109 3109 3109 3109 3110 3111 3112 3113 3114 3115 3116 3117 3118 3120 3122 3122 3123 3125 3126 3127 3128 3129 3130 3130 3131 3132 3132 3133 3134 3134 3135 3136 3137 3138 3138 3138 3138 3138 3138 3139 3139 3139 3140 3140 3141 3141 3141 3142 3144 3145 3146 3147 3150 3155 3156 3155 3156 3155 3155 3155 3155 3155 3154 3153 3152 3152 3152 3153 3153 3153
3107 3107 3107 3107 3106 3106 3106 3107 3107 3107 3106 3107 3107 3107 3108 3108 3108 3108 3109 3109 3110 3110 3111 3112 3112 3114 3114 3115 3116 3117 3118 3120 3122 3123 3123 3124 3126 3127 3128 3129 3130 3130 3131 3131 3132 3133 3134 3134 3135 3137 3138 3139 3139 3139 3139 3139 3139 3139 3139 3139 3140 3140 3140 3141 3141 3142 3143 3145 3145 3146 3149 3153 3154 3154 3155 3155 3155 3154 3154 3154 3154 3153 3152 3150 3150 3151 3152 3152
3107 3107 3107 3107 3106 3106 3106 3107 3107 3107 3107 3107 3108 3108 3108 3108 3108 3109 3109 3110 3110 3111 3111 3112 3113 3114 3115 3115 3116 3117 3118 3119 3121 3122 3123 3124 3125 3126 3128 3128 3129 3130 3130 3131 3131 3132 3133 3134 3134 3135 3136 3137 3137 3137 3138 3139 3139 3139 3139 3139 3140 3140 3141 3141 3142 3142 3144 3145 3146 3147 3149 3152 3153 3153 3154 3154 3154 3154 3154 3153 3153 3152 3151 3150 3149 3149 3150 3150
3107 3107 3107 3107 3106 3106 3106 3106 3107 3108 3108 3108 3108 3108 3108 3109 3109 3109 3110 3110 3111 3111 3112 3113 3113 3114 3115 3115 3116 3117 3118 3119 3120 3122 3123 3124 3125 3126 3127 3128 3128 3129 3129 3130 3130 3131 3132 3133 3133 3134 3134 3134 3135 3135 3136 3137 3138 3139 3139 3140 3140 3140 3141 3141 3142 3143 3144 3145 3147 3148 3149 3150 3151 3151 3152 3153 3153 3153 3153 3153 3152 3152 3151 3150 3148 3148 3148 3149
3107 3107 3107 3107 3107 3107 3106 3107 3107 3108 3108 3108 3109 3109 3109 3109 3109 3109 3110 3110 3111 3112 3112 3113 3113 3114 3115 3116 3116 3117 3118 3119 3120 3121 3122 3123 3124 3125 3126 3127 3127 3127 3128 3128 3129 3130 3131 3131 3132 3132 3133 3133 3134 3134 3135 3136 3137 3138 3139 3139 3140 3140 3141 3141 3142 3143 3144 3145 3146 3147 3147 3148 3149 3149 3150 3151 3152 3152 3152 3152 3151 3151 3151 3150 3149 3149 3149 3148
3107 3107 3107 3107 3107 3107 3107 3107 3107 3107 3108 3108 3108 3109 3109 3109 3109 3110 3110 3111 3111 3112 3112 3113 3114 3114 3115 3115 3116 3117 3118 3119 3120 3121 3122 3122 3123 3124 3125 3126 3126 3126 3127 3127 3128 3129 3129 3130 3131 3131 3132 3132 3133 3134 3134 3135 3136 3137 3138 3139 3139 3140 3141 3141 3142 3143 3144 3145 3145 3146 3146 3147 3148 3148 3149 3149 3150 3150 3151 3151 3151 3151 3150 3150 3150 3149 3149 3148
3107 3107 3107 3106 3107 3107 3107 3107 3107 3107 3108 3108 3108 3109 3109 3109 3109 3110 3110 3111 3111 3112 3112 3113 3113 3114 3114 3115 3115 3116 3117 3118 3119 3120 3121 3122 3123 3123 3124 3125 3125 3125 3126 3127 3127 3128 3129 3130 3130 3131 3131 3132 3133 3133 3134 3135 3136 3136 3137 3138 3138 3139 3140 3141 3142 3142 3143 3144 3144 3145 3145 3145 3146 3147 3147 3148 3149 3149 3150 3150 3150 3151 3150 3150 3150 3149 3148 3148
3107 3107 3107 3106 3106 3106 3106 3107 3107 3107 3108 3108 3108 3109 3109 3109 3109 3109 3110 3111 3111 3112 3112 3113 3113 3113 3114 3114 3115 3116 3117 3118 3119 3120 3121 3122 3122 3123 3124 3124 3125 3125 3126 3127 3127 3128 3128 3129 3130 3130 3131 3132 3132 3133 3134 3134 3135 3136 3136 3137 3137 3138 3139 3140 3141 3142 3143 3143 3144 3144 3144 3144 3145 3145 3146 3147 3148 3148 3149 3149 3150 3150 3150 3150 3149 3149 3148 3148
3107 3107 3107 3106 3106 3106 3106 3107 3107 3107 3108 3108 3108 3108 3109 3109 3109 3109 3109 3110 3111 3111 3112 3112 3113 3113 3114 3114 3115 3116 3117 3118 3119 3120 3121 3121 3122 3123 3123 3124 3125 3125 3126 3127 3127 3127 3128 3129 3129 3130 3131 3132 3132 3133 3133 3134 3135 3135 3135 3136 3136 3137 3138 3139 3139 3140 3142 3142 3143 3144 3144 3144 3144 3144 3144 3146 3147 3147 3148 3148 3149 3149 3149 3149 3149 3148 3148 3148
3107 3107 3107 3107 3107 3107 3107 3107 3107 3108 3108 3108 3108 3108 3109 3109 3109 3109 3109 3110 3111 3111 3112 3112 3112 3113 3114 3114 3115 3116 3117 3117 3118 3119 3120 3121 3122 3123 3123 3124 3125 3125 3126 3126 3127 3127 3128 3128 3129 3130 3131 3132 3132 3133 3133 3134 3135 3135 3134 3134 3135 3136 3136 3137 3138 3139 3140 3141 3142 3143 3142 3142 3142 3143 3143 3144 3145 3146 3146 3147 3147 3148 3148 3148 3148 3148 3147 3147